Time,TemperatureF,DewpointF,PressureIn,WindDirection,WindDirectionDegrees,WindSpeedMPH,WindSpeedGustMPH,Humidity,HourlyPrecipIn,Conditions,Clouds,dailyrainin,SoftwareType,DateUTC
2013-07-01 00:10:00,58.5,57.9,30.04,NNW,337,0.0,-999.0,98,-99.99,,,0.00,Acu-Link.com,2013-07-01 04:10:00,
2013-07-01 00:25:00,58.3,57.7,30.04,NNW,337,0.0,-999.0,98,-99.99,,,0.00,Acu-Link.com,2013-07-01 04:25:00,
2013-07-01 00:41:00,58.5,57.9,30.04,NNW,337,0.0,-999.0,98,-99.99,,,0.00,Acu-Link.com,2013-07-01 04:41:00,
2013-07-01 00:56:00,58.3,57.7,30.04,NNW,337,0.0,-999.0,98,-99.99,,,0.00,Acu-Link.com,2013-07-01 04:56:00,
2013-07-01 01:11:00,57.7,57.2,30.05,NNW,337,0.0,-999.0,98,-99.99,,,0.00,Acu-Link.com,2013-07-01 05:11:00,
2013-07-01 01:26:00,57.7,57.2,30.05,NNW,337,0.0,-999.0,98,-99.99,,,0.00,Acu-Link.com,2013-07-01 05:26:00,
2013-07-01 01:41:00,57.6,57.0,30.04,NNW,337,0.0,-999.0,98,-99.99,,,0.00,Acu-Link.com,2013-07-01 05:41:00,
2013-07-01 01:57:00,57.6,57.0,30.05,NNW,337,0.0,-999.0,98,-99.99,,,0.00,Acu-Link.com,2013-07-01 05:57:00,
2013-07-01 02:12:00,57.4,56.8,30.05,NNW,337,0.0,-999.0,98,-99.99,,,0.00,Acu-Link.com,2013-07-01 06:12:00,
2013-07-01 02:27:00,57.0,56.5,30.05,NNW,337,0.0,-999.0,98,-99.99,,,0.00,Acu-Link.com,2013-07-01 06:27:00,
2013-07-01 02:42:00,56.8,56.3,30.05,SSW,202,0.0,-999.0,98,-99.99,,,0.00,Acu-Link.com,2013-07-01 06:42:00,
2013-07-01 02:58:00,56.7,56.1,30.05,SW,225,0.0,-999.0,98,-99.99,,,0.00,Acu-Link.com,2013-07-01 06:58:00,
2013-07-01 03:13:00,56.5,55.9,30.05,SW,225,0.0,-999.0,98,-99.99,,,0.00,Acu-Link.com,2013-07-01 07:13:00,
2013-07-01 03:28:00,56.3,55.7,30.05,NW,315,0.0,-999.0,98,-99.99,,,0.00,Acu-Link.com,2013-07-01 07:28:00,
2013-07-01 03:43:00,56.3,55.7,30.05,NW,315,0.0,-999.0,98,-99.99,,,0.00,Acu-Link.com,2013-07-01 07:43:00,
2013-07-01 03:58:00,56.3,55.7,30.05,SW,225,0.0,-999.0,98,-99.99,,,0.00,Acu-Link.com,2013-07-01 07:58:00,
2013-07-01 04:14:00,56.1,55.6,30.05,West,270,0.0,-999.0,98,-99.99,,,0.00,Acu-Link.com,2013-07-01 08:14:00,
2013-07-01 04:30:00,56.1,55.6,30.05,WSW,247,0.0,-999.0,98,-99.99,,,0.00,Acu-Link.com,2013-07-01 08:30:00,
2013-07-01 04:45:00,56.1,55.6,30.06,NNW,337,0.0,-999.0,98,-99.99,,,0.00,Acu-Link.com,2013-07-01 08:45:00,
2013-07-01 05:00:00,55.9,55.4,30.06,NNW,337,0.0,-999.0,98,-99.99,,,0.00,Acu-Link.com,2013-07-01 09:00:00,
2013-07-01 05:15:00,55.9,55.4,30.07,NNW,337,0.0,-999.0,98,-99.99,,,0.00,Acu-Link.com,2013-07-01 09:15:00,
2013-07-01 05:30:00,55.9,55.4,30.08,NNW,337,0.0,-999.0,98,-99.99,,,0.00,Acu-Link.com,2013-07-01 09:30:00,
2013-07-01 05:45:00,55.9,55.4,30.08,NNW,337,0.0,-999.0,98,-99.99,,,0.00,Acu-Link.com,2013-07-01 09:45:00,
2013-07-01 06:01:00,56.3,55.7,30.10,North,0,0.0,-999.0,98,-99.99,,,0.00,Acu-Link.com,2013-07-01 10:01:00,
2013-07-01 06:16:00,56.3,55.7,30.10,North,0,0.0,-999.0,98,-99.99,,,0.00,Acu-Link.com,2013-07-01 10:16:00,
2013-07-01 06:31:00,56.7,56.1,30.11,North,0,0.0,-999.0,98,-99.99,,,0.00,Acu-Link.com,2013-07-01 10:31:00,
2013-07-01 06:46:00,56.8,56.3,30.11,North,0,0.0,-999.0,98,-99.99,,,0.00,Acu-Link.com,2013-07-01 10:46:00,
2013-07-01 07:01:00,57.4,56.8,30.12,North,0,0.0,-999.0,98,-99.99,,,0.00,Acu-Link.com,2013-07-01 11:01:00,
2013-07-01 07:17:00,58.5,57.9,30.12,NE,45,0.0,-999.0,98,-99.99,,,0.00,Acu-Link.com,2013-07-01 11:17:00,
2013-07-01 07:32:00,59.4,58.8,30.13,North,0,0.0,-999.0,98,-99.99,,,0.00,Acu-Link.com,2013-07-01 11:32:00,
2013-07-01 07:47:00,60.3,57.0,30.13,ENE,67,0.0,-999.0,89,-99.99,,,0.00,Acu-Link.com,2013-07-01 11:47:00,
2013-07-01 08:02:00,61.2,55.3,30.13,ENE,67,0.0,-999.0,81,-99.99,,,0.00,Acu-Link.com,2013-07-01 12:02:00,
2013-07-01 08:17:00,61.2,56.0,30.14,ENE,67,0.0,-999.0,83,-99.99,,,0.00,Acu-Link.com,2013-07-01 12:17:00,
2013-07-01 08:32:00,61.3,56.8,30.13,ENE,67,0.0,-999.0,85,-99.99,,,0.00,Acu-Link.com,2013-07-01 12:32:00,
2013-07-01 08:48:00,61.9,54.2,30.14,ENE,67,0.0,-999.0,76,-99.99,,,0.00,Acu-Link.com,2013-07-01 12:48:00,
2013-07-01 09:03:00,62.8,53.2,30.14,NE,45,0.0,-999.0,71,-99.99,,,0.00,Acu-Link.com,2013-07-01 13:03:00,
2013-07-01 09:18:00,63.7,53.7,30.14,East,90,0.0,-999.0,70,-99.99,,,0.00,Acu-Link.com,2013-07-01 13:18:00,
2013-07-01 09:33:00,63.7,54.1,30.14,NE,45,0.0,-999.0,71,-99.99,,,0.00,Acu-Link.com,2013-07-01 13:33:00,
2013-07-01 09:48:00,63.9,57.2,30.14,East,90,0.0,-999.0,79,-99.99,,,0.00,Acu-Link.com,2013-07-01 13:48:00,
2013-07-01 10:04:00,64.8,57.4,30.16,East,90,0.0,-999.0,77,-99.99,,,0.00,Acu-Link.com,2013-07-01 14:04:00,
2013-07-01 10:19:00,65.7,57.5,30.16,East,90,0.0,-999.0,75,-99.99,,,0.00,Acu-Link.com,2013-07-01 14:19:00,
2013-07-01 10:34:00,66.4,55.9,30.16,East,90,0.0,-999.0,69,-99.99,,,0.00,Acu-Link.com,2013-07-01 14:34:00,
2013-07-01 10:49:00,66.7,58.9,30.17,NNW,337,0.0,-999.0,76,-99.99,,,0.00,Acu-Link.com,2013-07-01 14:49:00,
2013-07-01 11:04:00,67.3,56.8,30.17,East,90,0.0,-999.0,69,-99.99,,,0.00,Acu-Link.com,2013-07-01 15:04:00,
2013-07-01 11:19:00,67.8,56.5,30.17,East,90,0.0,-999.0,67,-99.99,,,0.00,Acu-Link.com,2013-07-01 15:19:00,
2013-07-01 11:35:00,68.9,57.5,30.17,ESE,112,0.0,-999.0,67,-99.99,,,0.00,Acu-Link.com,2013-07-01 15:35:00,
2013-07-01 11:50:00,69.8,56.2,30.17,ENE,67,0.0,-999.0,62,-99.99,,,0.00,Acu-Link.com,2013-07-01 15:50:00,
2013-07-01 12:05:00,70.7,57.0,30.18,ESE,112,0.0,-999.0,62,-99.99,,,0.00,Acu-Link.com,2013-07-01 16:05:00,
2013-07-01 12:20:00,70.5,55.5,30.18,NE,45,0.0,-999.0,59,-99.99,,,0.00,Acu-Link.com,2013-07-01 16:20:00,
2013-07-01 12:35:00,70.5,56.0,30.17,NE,45,0.0,-999.0,60,-99.99,,,0.00,Acu-Link.com,2013-07-01 16:35:00,
2013-07-01 12:51:00,71.2,53.7,30.17,ENE,67,0.0,-999.0,54,-99.99,,,0.00,Acu-Link.com,2013-07-01 16:51:00,
2013-07-01 13:06:00,72.1,52.5,30.18,East,90,2.2,-999.0,50,-99.99,,,0.00,Acu-Link.com,2013-07-01 17:06:00,
2013-07-01 13:21:00,71.4,53.4,30.17,East,90,0.0,-999.0,53,-99.99,,,0.00,Acu-Link.com,2013-07-01 17:21:00,
2013-07-01 13:36:00,71.2,53.7,30.17,ESE,112,2.2,-999.0,54,-99.99,,,0.00,Acu-Link.com,2013-07-01 17:36:00,
2013-07-01 13:51:00,71.8,53.2,30.16,East,90,2.2,-999.0,52,-99.99,,,0.00,Acu-Link.com,2013-07-01 17:51:00,
2013-07-01 14:07:00,71.2,52.2,30.17,NE,45,3.1,-999.0,51,-99.99,,,0.00,Acu-Link.com,2013-07-01 18:07:00,
2013-07-01 14:22:00,71.8,52.7,30.17,NE,45,0.0,-999.0,51,-99.99,,,0.00,Acu-Link.com,2013-07-01 18:22:00,
2013-07-01 14:37:00,72.3,52.6,30.17,ENE,67,1.6,-999.0,50,-99.99,,,0.00,Acu-Link.com,2013-07-01 18:37:00,
2013-07-01 14:52:00,73.2,50.6,30.16,East,90,1.1,-999.0,45,-99.99,,,0.00,Acu-Link.com,2013-07-01 18:52:00,
2013-07-01 15:07:00,73.0,51.6,30.16,East,90,1.1,-999.0,47,-99.99,,,0.00,Acu-Link.com,2013-07-01 19:07:00,
2013-07-01 15:23:00,72.9,51.4,30.17,NE,45,1.6,-999.0,47,-99.99,,,0.00,Acu-Link.com,2013-07-01 19:23:00,
2013-07-01 15:38:00,72.5,51.1,30.16,ENE,67,2.2,-999.0,47,-99.99,,,0.00,Acu-Link.com,2013-07-01 19:38:00,
2013-07-01 15:53:00,72.1,51.9,30.17,ESE,112,0.0,-999.0,49,-99.99,,,0.00,Acu-Link.com,2013-07-01 19:53:00,
2013-07-01 16:08:00,71.8,50.5,30.17,ESE,112,1.6,-999.0,47,-99.99,,,0.00,Acu-Link.com,2013-07-01 20:08:00,
2013-07-01 16:23:00,71.4,50.7,30.17,ESE,112,1.1,-999.0,48,-99.99,,,0.00,Acu-Link.com,2013-07-01 20:23:00,
2013-07-01 16:39:00,71.4,52.3,30.17,NE,45,0.0,-999.0,51,-99.99,,,0.00,Acu-Link.com,2013-07-01 20:39:00,
2013-07-01 16:54:00,70.7,52.2,30.17,ENE,67,2.2,-999.0,52,-99.99,,,0.00,Acu-Link.com,2013-07-01 20:54:00,
2013-07-01 17:09:00,70.5,51.0,30.17,NE,45,0.0,-999.0,50,-99.99,,,0.00,Acu-Link.com,2013-07-01 21:09:00,
2013-07-01 17:24:00,69.8,54.8,30.18,NE,45,0.0,-999.0,59,-99.99,,,0.00,Acu-Link.com,2013-07-01 21:24:00,
2013-07-01 17:39:00,69.1,55.5,30.18,ENE,67,0.0,-999.0,62,-99.99,,,0.00,Acu-Link.com,2013-07-01 21:39:00,
2013-07-01 17:55:00,68.2,56.4,30.18,ENE,67,0.0,-999.0,66,-99.99,,,0.00,Acu-Link.com,2013-07-01 21:55:00,
2013-07-01 18:10:00,67.8,56.5,30.18,ENE,67,0.0,-999.0,67,-99.99,,,0.00,Acu-Link.com,2013-07-01 22:10:00,
2013-07-01 18:25:00,67.6,54.6,30.18,East,90,0.0,-999.0,63,-99.99,,,0.00,Acu-Link.com,2013-07-01 22:25:00,
2013-07-01 18:40:00,67.8,54.8,30.17,ENE,67,0.0,-999.0,63,-99.99,,,0.00,Acu-Link.com,2013-07-01 22:40:00,
2013-07-01 18:56:00,67.8,54.3,30.17,ENE,67,0.0,-999.0,62,-99.99,,,0.00,Acu-Link.com,2013-07-01 22:56:00,
2013-07-01 19:11:00,67.6,50.9,30.18,ENE,67,0.0,-999.0,55,-99.99,,,0.00,Acu-Link.com,2013-07-01 23:11:00,
2013-07-01 19:26:00,67.1,49.9,30.19,East,90,1.1,-999.0,54,-99.99,,,0.00,Acu-Link.com,2013-07-01 23:26:00,
2013-07-01 19:41:00,66.4,49.7,30.19,ENE,67,0.0,-999.0,55,-99.99,,,0.00,Acu-Link.com,2013-07-01 23:41:00,
2013-07-01 19:56:00,65.8,48.7,30.18,East,90,1.1,-999.0,54,-99.99,,,0.00,Acu-Link.com,2013-07-01 23:56:00,
2013-07-01 20:11:00,64.6,50.8,30.19,North,0,1.6,-999.0,61,-99.99,,,0.00,Acu-Link.com,2013-07-02 00:11:00,
2013-07-01 20:27:00,63.9,50.6,30.19,North,0,1.6,-999.0,62,-99.99,,,0.00,Acu-Link.com,2013-07-02 00:27:00,
2013-07-01 20:42:00,63.1,50.8,30.20,North,0,0.0,-999.0,64,-99.99,,,0.00,Acu-Link.com,2013-07-02 00:42:00,
2013-07-01 20:57:00,62.8,50.8,30.21,North,0,0.0,-999.0,65,-99.99,,,0.00,Acu-Link.com,2013-07-02 00:57:00,
2013-07-01 21:12:00,62.4,51.3,30.21,North,0,0.0,-999.0,67,-99.99,,,0.00,Acu-Link.com,2013-07-02 01:12:00,
2013-07-01 21:27:00,61.9,48.7,30.21,North,0,0.0,-999.0,62,-99.99,,,0.00,Acu-Link.com,2013-07-02 01:27:00,
2013-07-01 21:43:00,61.7,51.4,30.21,North,0,0.0,-999.0,69,-99.99,,,0.00,Acu-Link.com,2013-07-02 01:43:00,
2013-07-01 21:58:00,61.3,50.7,30.22,North,0,0.0,-999.0,68,-99.99,,,0.00,Acu-Link.com,2013-07-02 01:58:00,
2013-07-01 22:13:00,61.2,49.7,30.22,North,0,0.0,-999.0,66,-99.99,,,0.00,Acu-Link.com,2013-07-02 02:13:00,
2013-07-01 22:28:00,61.9,47.4,30.21,North,0,0.0,-999.0,59,-99.99,,,0.00,Acu-Link.com,2013-07-02 02:28:00,
2013-07-01 22:43:00,61.2,51.3,30.22,North,0,0.0,-999.0,70,-99.99,,,0.00,Acu-Link.com,2013-07-02 02:43:00,
2013-07-01 22:59:00,60.8,50.6,30.22,North,0,0.0,-999.0,69,-99.99,,,0.00,Acu-Link.com,2013-07-02 02:59:00,
2013-07-01 23:14:00,61.7,46.8,30.22,ENE,67,2.2,-999.0,58,-99.99,,,0.00,Acu-Link.com,2013-07-02 03:14:00,
2013-07-01 23:29:00,61.9,46.5,30.22,NE,45,2.2,-999.0,57,-99.99,,,0.00,Acu-Link.com,2013-07-02 03:29:00,
2013-07-01 23:44:00,61.9,46.5,30.21,ENE,67,1.1,-999.0,57,-99.99,,,0.00,Acu-Link.com,2013-07-02 03:44:00,
2013-07-01 23:59:00,62.1,45.7,30.20,ENE,67,0.0,-999.0,55,-99.99,,,0.00,Acu-Link.com,2013-07-02 03:59:00,